BEIDOU-3 M27 (C49)

Last updated on Sun Jun 21 2026 00:03:32 GMT+0000 (Coordinated Universal Time)

1 61187U 24168C 26171.45985458 -.00000092 00000+0 00000+0 0 9999 2 61187 54.4653 302.1109 0001518 51.2333 295.9316 1.86230118 9318
UTC large
Height (km)
Speed (km/s)
/
Latitude / Longitude
Inclination (degrees)
Orbital Period (minutes)
Azimuth
Elevation
Range (km)
Doppler Factor

Next 0 passes for location: London (51.5072 / 0.1276)

No passes found over London.
BEIDOU-3 M27 (C49)